Home   Weather   Ica   Past weeks

Flag for Peru Past Weather in Ica, Ica, Peru — Yesterday and Last 2 Weeks

Now
72 °F

Fog.


Feels Like: 71 °F
Forecast: 62 / 91 °F
Wind: 10 mph from Northwest

Location: Pisco Airport

Current Time: Dec 7, 2016 at 1:36:58 pm

Latest Report: Dec 7, 2016 at 1:00 pm


Visibility: 2 mi

Pressure: 29.89 "Hg

Humidity: 83%

Dew Point: 66 °F

Location of IcaLocation

Past Weather in Ica — Graph

°F

Ica Temperature Yesterday

Maximum temperature yesterday: 70 °F (at 10:00 am)
Minimum temperature yesterday: 64 °F (at 3:00 am)
Average temperature yesterday: 68 °F

High & Low Weather Summary for the Past Weeks

 TemperatureHumidityPressure
High79 °F (Nov 22, 3:00 pm)94% (Nov 23, 2:00 am)29.98 "Hg (Nov 23, 2:00 am)
Low59 °F (Nov 24, 4:00 am)54% (Nov 22, 3:00 pm)29.77 "Hg (Nov 28, 4:00 pm)
Average69 °F81%29.90 "Hg
* Reported Nov 22 12:00 pm — Dec 7 12:00 pm, Ica, Weather by CustomWeather, © 2016

Note: Actual official high and low records may vary slightly from our data, if they occured in-between our weather recording intervals... More about our weather records

Advertising

Ica Weather History for the Previous 24 Hours

Scroll right to see more
 ConditionsComfort  
Time TempWeatherWind HumidityBarometerVisibility
12:00 pm
Wed, Dec 7
72 °FMild.9 mph78%29.92 "Hg2 mi
11:00 am70 °FFog.9 mph83%29.95 "Hg2 mi
10:00 am70 °FFog.9 mph83%29.95 "Hg3 mi
9:00 am70 °FPartly sunny.9 mph88%29.95 "Hg2 mi
8:00 am70 °FScattered clouds.6 mph83%29.95 "Hg2 mi
7:00 am68 °FFog.1 mph88%29.92 "Hg2 mi
6:00 am66 °FFog.2 mph88%29.92 "Hg2 mi
5:00 am66 °FFog.3 mph88%29.89 "Hg2 mi
4:00 am64 °FPassing clouds.2 mph94%29.89 "Hg3 mi
3:00 am64 °FPassing clouds.2 mph94%29.89 "Hg4 mi
2:00 am66 °FClear.3 mph88%29.89 "Hg4 mi
1:00 am66 °FClear.3 mph88%29.92 "Hg4 mi
12:00 am66 °FClear.5 mph88%29.95 "Hg4 mi
11:00 pm
Tue, Dec 6
68 °FClear.2 mph88%29.95 "Hg10 mi
10:00 pm68 °FClear.2 mph88%29.98 "Hg10 mi
9:00 pm68 °FClear.2 mph88%29.98 "Hg10 mi
8:00 pm68 °FClear.5 mph88%29.95 "Hg10 mi
7:00 pm68 °FPassing clouds.6 mph88%29.95 "HgN/A
6:00 pm70 °FBroken clouds.9 mph83%29.92 "HgN/A
5:00 pm70 °FBroken clouds.10 mph83%29.92 "HgN/A
4:00 pm70 °FBroken clouds.10 mph83%29.89 "HgN/A
3:00 pm70 °FScattered clouds.10 mph83%29.89 "Hg4 mi
1:00 pm70 °FFog.8 mph78%29.92 "Hg3 mi
Weather by CustomWeather, © 2016

See weather overviewHow to use our weather pages